sat.trackr.live / text

‹ back to catalog

IRIDIUM 167

NORAD 43931 · 2019-002K

PAYLOAD ACTIVE UNKNOWN

§ Identity

Operator
Country
US
Launch date
2019-01-11
Launch site
AFWTR
Launch vehicle
Mass (kg)
RCS (m²)

Purposes: comms

External: N2YO · Heavens-Above · Gunter

§ Orbital elements

Epoch: 2026-09-20T02:38:18.951648Z

Period
100.40 min
Inclination
86.3970°
Eccentricity
0.0002060
Mean motion
14.34217408 rev/d
Perigee alt
776.2 km
Apogee alt
779.1 km
Semi-major
7,155.8 km
B*
9.7320e-6
RAAN
313.9364°
Arg perigee
89.9366°
Mean anomaly
270.2066°
Rev number
40,256

§ Raw data

IRIDIUM 1671 43931U 19002K   26263.10994157  .00000047  00000+0  97320-5 0  99932 43931  86.3970 313.9364 0002060  89.9366 270.2066 14.34217408402567

JSON: /api/v1/satellites/43931 · /tle

For live sub-satellite position, see the globe view (requires WebGL).

§ Visibility from observer

Set your observer location to see the next 7 days of passes ≥ 10°. The values pass through the URL so the page stays shareable.

No JS? Fill the form by hand. The geolocation button needs JavaScript.